TimeMDT,TemperatureF,Dew PointF,Humidity,Sea Level PressureIn,VisibilityMPH,Wind Direction,Wind SpeedMPH,Gust SpeedMPH,PrecipitationIn,Events,Conditions,WindDirDegrees,DateUTC
12:53 AM,62.1,42.1,48,29.84,10.0,North,8.1,-,N/A,,Clear,350,2013-07-06 06:53:00
1:53 AM,57.9,41.0,53,29.85,10.0,NW,8.1,-,N/A,,Clear,320,2013-07-06 07:53:00
2:53 AM,57.9,39.9,51,29.86,10.0,NNW,4.6,-,N/A,,Clear,340,2013-07-06 08:53:00
3:53 AM,55.9,42.1,60,29.88,10.0,SE,4.6,-,N/A,,Clear,140,2013-07-06 09:53:00
4:53 AM,51.1,41.0,68,29.89,10.0,NNE,3.5,-,N/A,,Clear,20,2013-07-06 10:53:00
5:53 AM,52.0,41.0,66,29.91,10.0,SE,3.5,-,N/A,,Clear,130,2013-07-06 11:53:00
6:53 AM,53.1,43.0,69,29.93,10.0,NNW,3.5,-,N/A,,Clear,340,2013-07-06 12:53:00
7:53 AM,59.0,43.0,55,29.92,10.0,Calm,Calm,-,N/A,,Clear,0,2013-07-06 13:53:00
8:53 AM,62.1,44.1,52,29.93,10.0,Calm,Calm,-,N/A,,Clear,0,2013-07-06 14:53:00
9:53 AM,66.9,43.0,42,29.92,10.0,Calm,Calm,-,N/A,,Clear,0,2013-07-06 15:53:00
10:53 AM,71.1,44.1,38,29.91,10.0,Calm,Calm,-,N/A,,Clear,0,2013-07-06 16:53:00
11:53 AM,75.0,41.0,29,29.89,10.0,East,4.6,-,N/A,,Clear,100,2013-07-06 17:53:00
12:53 PM,78.1,33.1,19,29.86,10.0,Variable,5.8,-,N/A,,Clear,0,2013-07-06 18:53:00
1:53 PM,80.1,32.0,17,29.85,10.0,Variable,4.6,-,N/A,,Clear,0,2013-07-06 19:53:00
2:53 PM,82.0,34.0,18,29.82,10.0,NNW,5.8,-,N/A,,Clear,340,2013-07-06 20:53:00
3:53 PM,84.0,32.0,15,29.80,10.0,Variable,6.9,-,N/A,,Clear,0,2013-07-06 21:53:00
4:53 PM,86.0,37.9,18,29.78,10.0,NNE,6.9,-,N/A,,Clear,30,2013-07-06 22:53:00
5:53 PM,84.9,37.9,19,29.77,10.0,North,9.2,18.4,N/A,,Clear,10,2013-07-06 23:53:00
6:53 PM,82.9,37.0,19,29.76,10.0,North,12.7,-,N/A,,Clear,360,2013-07-07 00:53:00
7:53 PM,82.0,37.0,20,29.75,10.0,North,9.2,-,N/A,,Clear,10,2013-07-07 01:53:00
8:53 PM,78.1,37.0,23,29.77,10.0,North,12.7,-,N/A,,Clear,10,2013-07-07 02:53:00
9:53 PM,75.0,37.9,26,29.78,10.0,North,11.5,19.6,N/A,,Clear,360,2013-07-07 03:53:00
10:53 PM,69.1,39.9,35,29.81,10.0,West,4.6,-,N/A,,Clear,260,2013-07-07 04:53:00
11:53 PM,66.0,39.9,38,29.82,10.0,Variable,3.5,-,N/A,,Clear,0,2013-07-07 05:53:00